sat.trackr.live / text

‹ back to catalog

ONEWEB-0358

NORAD 49284 · 2021-090F

PAYLOAD ACTIVE UNKNOWN

§ Identity

Operator
Country
UK
Launch date
2021-10-14
Launch site
VOSTO
Launch vehicle
Mass (kg)
RCS (m²)

Purposes: comms

External: N2YO · Heavens-Above · Gunter

§ Orbital elements

Epoch: 2026-09-19T23:00:11.577312Z

Period
109.03 min
Inclination
87.9143°
Eccentricity
0.0002029
Mean motion
13.20770274 rev/d
Perigee alt
1,180.2 km
Apogee alt
1,183.3 km
Semi-major
7,559.9 km
B*
9.8718e-5
RAAN
255.5364°
Arg perigee
91.4302°
Mean anomaly
268.7064°
Rev number
24,306

§ Raw data

ONEWEB-03581 49284U 21090F   26262.95846733  .00000053  00000+0  98718-4 0  99962 49284  87.9143 255.5364 0002029  91.4302 268.7064 13.20770274243064

JSON: /api/v1/satellites/49284 · /tle

For live sub-satellite position, see the globe view (requires WebGL).

§ Visibility from observer

Set your observer location to see the next 7 days of passes ≥ 10°. The values pass through the URL so the page stays shareable.

No JS? Fill the form by hand. The geolocation button needs JavaScript.